Location: Hoyos del Collado
(40.3594°N, 5.2003°W)
Time: 16:08:37
(UTC+00:00)

Cosmos 1697 Rocket - Pass Details

Date: 18 April 2024
Orbit: 832 x 843 km, 71.0° (Epoch: 29 May)

Event Time Altitude Azimuth Distance (km) Brightness Sun altitude
Exits shadow 20:18:41 14° 83° (E) 2,201 4.4 -14.1°
Drops below altitude 10° 20:20:26 10° 65° (ENE) 2,465 4.8 -14.4°
Sets 20:23:58 0° 43° (NE) 3,406 5.7 -15.0°
